CW4828 Weather Reports


time (UTC)temp
F
wind
direction
speed
knots
gust
knots
rain 1hr
in
rain 24hr
in
rain mn
in
humidity
%
barometer
mb
20260504201553 84 164 1.7 9.6 0.00 0.00 0.00 44 1015.0
20260504200057 84 127 2.6 7.0 0.00 0.00 0.00 44 1015.3
20260504194552 85 109 1.7 5.2 0.00 0.00 0.00 42 1015.5
20260504193054 85 165 1.7 7.8 0.00 0.00 0.00 42 1015.6
20260504191557 84 82 1.7 8.7 0.00 0.00 0.00 44 1016.0
20260504190108 85 63 0.9 9.6 0.00 0.00 0.00 41 1016.2
20260504184611 84 81 1.7 6.1 0.00 0.00 0.00 43 1016.5
20260504183054 84 186 2.6 9.6 0.00 0.00 0.00 41 1016.5
20260504181604 83 103 1.7 7.8 0.00 0.00 0.00 40 1016.7
20260504180105 84 108 3.5 7.0 0.00 0.00 0.00 40 1016.9
20260504174610 83 112 2.6 7.0 0.00 0.00 0.00 41 1017.0
20260504173104 83 82 4.3 9.6 0.00 0.00 0.00 41 1017.1
20260504171600 83 108 2.6 7.8 0.00 0.00 0.00 41 1017.1
20260504170105 83 112 3.5 7.8 0.00 0.00 0.00 39 1017.4
20260504090105 65 0 0.0 2.6 0.00 0.00 0.00 79 1016.5
20260504081555 65 68 0.9 3.5 0.00 0.00 0.00 80 1016.6
20260504044559 68 0 0.9 3.5 0.00 0.00 0.00 72 1018.0
20260504043055 68 52 1.7 3.5 0.00 0.00 0.00 72 1018.0
20260504041554 68 66 1.7 3.5 0.00 0.00 0.00 72 1017.9
20260504040103 68 72 0.0 2.6 0.00 0.00 0.00 72 1017.9
20260504034559 68 70 0.9 2.6 0.00 0.00 0.00 71 1017.9
20260504033126 69 71 1.7 3.5 0.00 0.00 0.00 71 1018.1
20260504031557 69 84 0.9 4.3 0.00 0.00 0.00 70 1018.0
20260504030116 69 98 1.7 4.3 0.00 0.00 0.00 70 1018.0
20260504024556 69 48 2.6 6.1 0.00 0.02 0.00 69 1017.9
20260504023101 69 74 2.6 7.8 0.00 0.02 0.00 69 1018.0
20260504021557 69 110 1.7 5.2 0.00 0.02 0.00 69 1017.9
20260504014557 69 65 2.6 5.2 0.00 0.02 0.00 69 1017.6
20260504013109 69 98 2.6 5.2 0.00 0.02 0.00 69 1017.3
20260504011559 70 68 2.6 6.1 0.00 0.02 0.00 68 1017.3
20260504010113 70 76 2.6 7.0 0.00 0.02 0.00 67 1017.2
20260504004627 71 82 1.7 5.2 0.00 0.02 0.00 66 1017.1
20260504003056 71 67 2.6 7.8 0.00 0.02 0.00 65 1017.1
20260504001612 72 136 4.3 9.6 0.00 0.02 0.00 63 1016.9
20260504000056 73 84 1.7 7.0 0.00 0.02 0.00 60 1016.5
20260503234557 73 70 2.6 7.0 0.00 0.02 0.00 59 1016.4
20260503233054 74 76 1.7 5.2 0.00 0.02 0.00 58 1016.5
20260503231558 75 86 2.6 7.0 0.00 0.02 0.00 57 1016.3
20260503230100 76 105 2.6 5.2 0.00 0.02 0.00 55 1016.4
20260503224556 76 120 2.6 6.1 0.00 0.02 0.00 54 1016.4
20260503223059 78 100 3.5 7.0 0.00 0.02 0.00 52 1016.3
20260503221554 78 82 1.7 7.8 0.00 0.02 0.00 53 1016.3
20260503220056 78 1 2.6 9.6 0.00 0.02 0.00 52 1016.2
20260503214552 79 359 2.6 6.1 0.00 0.02 0.00 52 1016.1
20260503213106 79 54 3.5 7.8 0.00 0.02 0.00 53 1016.0
20260503211555 79 351 1.7 7.0 0.00 0.02 0.00 53 1016.0
20260503210101 78 360 2.6 10.4 0.00 0.02 0.00 53 1016.1
20260503204600 79 0 1.7 6.1 0.00 0.07 0.00 51 1016.4
20260503203103 79 73 1.7 6.1 0.00 0.07 0.00 53 1016.4